Regional Weather Roundup
Issued by NWS

Home | Current Version | Previous Version | Text Only | Print | Product List | Glossary Off
Versions: 1 2 3 4 5 6 7 8 9 10 11 12 13 14 15 16 17 18 19 20 21 22 23 24 25 26 27 28 29 30 31 32 33 34 35 36 37 38 39 40 41 42 43 44 45 46 47 48 49 50

000
ASUS43 KOAX 231110
RWRNE

WEATHER ROUNDUP FOR NEBRASKA
NATIONAL WEATHER SERVICE OMAHA NE
600 AM CDT TUE MAY 23 2017

NOTES: SATELLITE DATA IS BEING USED TO AUGMENT CLOUD COVER ABOVE
       12000 FEET.
       "FAIR" INDICATES FEW OR NO CLOUDS BELOW 12,000 FEET WITH NO
       SIGNIFICANT WEATHER AND/OR OBSTRUCTIONS TO VISIBILITY.

  * THESE STATIONS DO NOT REPORT WEATHER SUCH AS RAIN...SNOW OR FOG.

NEZ001>004-019>022-054>056-231200-
NEBRASKA PANHANDLE

CITY           SKY/WX    TMP DP  RH WIND       PRES   REMARKS
SCOTTSBLUFF    CLEAR     36  33  89 W5        30.16F WCI  32
ALLIANCE       MOCLDY    37  35  92 W8        30.11F WCI  31
CHADRON        PTCLDY    43  39  86 NW13      30.12F
GORDON         CLOUDY    44  39  83 NW9       30.09R
KIMBALL        CLEAR     37  35  93 W7        30.17S WCI  32
SIDNEY         CLEAR     36  34  92 NW10      30.15S WCI  28
$$

NEZ057>060-069>072-079>082-231200-
SOUTHWEST NEBRASKA

CITY           SKY/WX    TMP DP  RH WIND       PRES   REMARKS
NORTH PLATTE   CLOUDY    43  41  93 W9        30.06F
IMPERIAL       CLOUDY    43  38  82 NW10      30.10F
LEXINGTON      CLOUDY    45  42  89 W13       30.04F
MCCOOK         CLEAR     42  40  92 NW14      30.06F
OGALLALA       CLOUDY    46  41  82 NW12      30.10S
$$

NEZ005>010-023>029-035>040-094-231200-
NORTH CENTRAL NEBRASKA

CITY           SKY/WX    TMP DP  RH WIND       PRES   REMARKS
VALENTINE      CLOUDY    50  41  71 NW14      30.01S
AINSWORTH      CLOUDY    49  44  83 NW14G21   29.99S
BROKEN BOW     CLOUDY    47  42  83 W14       30.00F
O`NEILL        CLOUDY    48  43  84 CALM      29.95F
ORD            CLOUDY    47  42  83 W7        29.97F
THEDFORD       CLOUDY    45  43  91 W9        30.03F
$$

NEZ041-046>049-061>064-073>077-083>087-231200-
SOUTH CENTRAL NEBRASKA

CITY           SKY/WX    TMP DP  RH WIND       PRES   REMARKS
GRAND ISLAND   CLEAR     45  43  93 W9        29.99S
AURORA         CLEAR     46  43  90 W7        29.98S
HASTINGS       CLEAR     46  42  86 NW9       30.00S
HEBRON         CLEAR     50  46  88 NW7       29.96F
HOLDREGE       CLOUDY    46  43  90 NW9       30.02F
KEARNEY *      CLOUDY    48  41  76 NW9       30.01F
YORK           CLEAR     46  45  93 NW13      29.96S
$$

NEZ011>018-030>034-042>045-231200-
NORTHEAST NEBRASKA

CITY           SKY/WX    TMP DP  RH WIND       PRES   REMARKS
NORFOLK        CLOUDY    46  42  86 W6        29.93F
ALBION         CLOUDY    45  42  90 NW3       29.96S
BLAIR          PTCLDY    48  44  86 NW7       29.91S
FREMONT        CLEAR     47  43  88 W7        29.92F
TEKAMAH        CLEAR     47  42  83 NW10      29.91S
WAYNE          MOCLDY    45  45  99 W7        29.92F
$$

NEZ050>053-065>068-078-088>093-231200-
SOUTHEAST NEBRASKA

CITY           SKY/WX    TMP DP  RH WIND       PRES   REMARKS
LINCOLN        CLEAR     50  44  80 NW10      29.95S
OMAHA EPPLEY   PTCLDY    48  42  80 NW8       29.91S
BEATRICE       MOCLDY    49  46  92 NW6       29.93S
FALLS CITY     CLOUDY    51  47  86 NW10      29.90S
NEBRASKA CITY  CLOUDY    49  44  83 NW7       29.91S
PLATTSMOUTH    MOCLDY    48  43  82 NW8       29.91S
$$

NEZ044-045-051>053-067-231200-
OMAHA AREA

CITY           SKY/WX    TMP DP  RH WIND       PRES   REMARKS
OMAHA EPPLEY   PTCLDY    48  42  80 NW8       29.91S
BLAIR          PTCLDY    48  44  86 NW7       29.91S
FREMONT        CLEAR     47  43  88 W7        29.92F
MILLARD        PTCLDY    52  46  80 NW8       29.92S
OFFUTT AFB     PTCLDY    48  44  84 NW8       29.90S
PLATTSMOUTH    MOCLDY    48  43  82 NW8       29.91S
WAHOO          FAIR      48  43  81 NW9       29.93S
$$




USA.gov is the U.S. government's official web portal to all federal, state and local government web resources and services.